Terug naar catalogus

STARLINK-36169

ActiefCommunicatieVLEO
NORAD 66929·PAYLOAD·🇺🇸 United States

Gelanceerd Dec 7, 2025 vanaf Vandenberg Space Force Base

Loading…

Volgende Passages (komende 24 uur)

TLE

VersSource: CelesTrak SupGP

Epoch: Sep 15, 2026, 03:04 UTC

1 66929C 25286E   26258.12826389 -.00080600  00000+0 -23815-2 0  2581
2 66929  53.1573 194.5864 0001091  92.8947   2.4405 15.34429540    18

Volg STARLINK-36169 in realtime met AllMySat

Download on the App Store